{"data":{"norad_id":66223,"epoch":"2026-05-25T05:10:51.922272Z","epoch_age_seconds":60431,"freshness":"FRESH","line1":"1 66223U 25244T   26145.21587873  .00011441  00000+0  39775-3 0  9999","line2":"2 66223  53.1568 234.6222 0001359  81.3502 278.7652 15.30206134 33375","mean_motion":15.30206134,"eccentricity":0.0001359,"inclination_deg":53.1568,"raan_deg":234.6222,"arg_perigee_deg":81.3502,"mean_anomaly_deg":278.7652,"bstar":0.00039775,"rev_number":3337,"period_min":94.10496847479,"perigee_km":474.26538640494,"apogee_km":476.1281225194,"semimajor_km":6853.3337544622,"source":"CELESTRAK","updated_at":"2026-05-25T13:38:21.130312Z"}}